TimeICT,TemperatureF,Dew PointF,Humidity,Sea Level PressureIn,VisibilityMPH,Wind Direction,Wind SpeedMPH,Gust SpeedMPH,PrecipitationIn,Events,Conditions,WindDirDegrees,DateUTC
1:00 AM,79,75,83,29.83,5,NNE,2.3,,,,Mist,30,2012-10-13 18:00:00
1:00 AM,78.8,75.2,89,29.83,5.0,NNE,2.3,-,N/A,,Mostly Cloudy,30,2012-10-13 18:00:00
4:00 AM,77.0,73.4,89,29.80,5.0,East,2.3,-,N/A,,Unknown,100,2012-10-13 21:00:00
5:00 AM,77.0,73.4,89,29.83,5.0,Calm,Calm,-,N/A,,Unknown,0,2012-10-13 22:00:00
6:00 AM,77.0,73.4,89,29.83,1.2,Calm,Calm,-,N/A,,Mist,0,2012-10-13 23:00:00
6:30 AM,77.0,73.4,89,29.86,1.2,North,2.3,-,N/A,,Mist,350,2012-10-13 23:30:00
7:00 AM,77,74,87,29.88,1,North,3.5,,,,Mist,350,2012-10-14 00:00:00
10:00 AM,86.0,75.2,70,29.92,3.1,SSE,2.3,-,N/A,,Mostly Cloudy,150,2012-10-14 03:00:00
11:00 AM,87.8,75.2,66,29.89,3.7,SSE,4.6,-,N/A,,Mostly Cloudy,160,2012-10-14 04:00:00
12:00 PM,89.6,73.4,59,29.86,4.3,SE,2.3,-,N/A,,Mostly Cloudy,140,2012-10-14 05:00:00
1:00 PM,90,73,48,29.85,4,SE,2.3,,,,Haze,130,2012-10-14 06:00:00
1:00 PM,89.6,73.4,59,29.83,4.3,SE,3.5,-,N/A,,Mostly Cloudy,140,2012-10-14 06:00:00
2:00 PM,89.6,73.4,59,29.80,4.3,NNW,2.3,-,N/A,,Mostly Cloudy,330,2012-10-14 07:00:00
3:00 PM,91.4,73.4,55,29.77,4.3,ESE,2.3,-,N/A,,Mostly Cloudy,120,2012-10-14 08:00:00
4:00 PM,89.6,73.4,59,29.74,4.3,SE,2.3,-,N/A,,Mostly Cloudy,130,2012-10-14 09:00:00
5:00 PM,86.0,71.6,62,29.77,4.3,NE,3.5,-,N/A,,Mostly Cloudy,50,2012-10-14 10:00:00
5:30 PM,86.0,71.6,62,29.77,4.3,NE,2.3,-,N/A,,Mostly Cloudy,50,2012-10-14 10:30:00
6:00 PM,86.0,71.6,62,29.77,3.7,ENE,1.2,-,N/A,,Mostly Cloudy,60,2012-10-14 11:00:00
7:00 PM,85,74,64,29.79,3,Calm,Calm,,,,Mist,,2012-10-14 12:00:00
8:00 PM,84.2,73.4,70,29.83,3.1,NE,1.2,-,N/A,,Mostly Cloudy,50,2012-10-14 13:00:00
9:00 PM,84.2,75.2,74,29.83,3.1,SSE,2.3,-,N/A,,Mostly Cloudy,150,2012-10-14 14:00:00
10:00 PM,82.4,77.0,84,29.86,3.1,ENE,2.3,-,N/A,,Mostly Cloudy,60,2012-10-14 15:00:00
11:00 PM,80.6,75.2,84,29.86,3.7,NE,3.5,-,N/A,,Mostly Cloudy,40,2012-10-14 16:00:00